Погода в Брайс-Каньоне

США     37°37′47″N   112°09′55″W
темп.,
°C
ветер,
м/с
пор.,
м/с
влажн.,
%
обл.,
%
осадки,
мм/ч
давл.,
гПа
погр.,
м
11 апреля, вс
вс1100:00+5з22340 0.0 101122
03:00+4з22360 0.0 101014
06:00+3зсз22370 0.0 101012
09:00+6зсз24320 0.0 1011247
12:00+12сз59210 0.0 10081813
15:00+13зсз910195 0.0 10062244
18:00+12сз8922100 0.0 10061869
21:00+8сз3434100 0.0 100867
12 апреля, пн
пн1200:00+5ссз2240100 0.0 101013
03:00+3ссз224458 0.0 101013
06:00+3ссз224587 0.0 101119
09:00+5ссз23404 0.0 1011225
12:00+11сз23275 0.0 1008998
15:00+15з6718100 0.0 10043497
18:00+13зсз6720100 0.0 10052294
21:00+7ссз333279 0.0 100861
13 апреля, вт
вт1300:00+5с1139100 0.0 100810
03:00+6юв2234100 0.0 100710
06:00+5ю4542100 0.0 100780
09:00+9ююз6114681 0.2 10051174
12:00+11ююз9124593 0.4 10042119
15:00+13юз12122961 0.4 10013205
18:00+12юз1113280 0.4 9992106
21:00+8ююз1118400 0.0 10001236
14 апреля, ср
ср1400:00+6ююз1020410 0.0 10001330
03:00+4ююз1016470 0.0 1001892
06:00+2ююз51057100 0.0 1004325
09:00+4юз816341 0.0 10052423
12:00+7юз9162581 0.0 10053251
15:00+8зюз111623100 0.0 10043421
18:00+6з10123598 0.1 10062409
21:00+2сз476764 0.2 1010680
15 апреля, чт
чт1500:000ссз34815 0.2 1012201
03:00−2ссз348471 0.0 1013114
06:00−2ссз367870 0.0 1013253
09:00−1ссз576495 0.0 1014493
12:00+4сз55376 0.0 10101569
15:00+7сз99282 0.0 10082149
18:00+4ссз1111371 0.0 10101466
21:00+1сз24511 0.0 1014179